Regional Weather Roundup
Issued by NWS

Home | Current Version | Previous Version | Graphics & Text | Print | Product List | Glossary On
Versions: 1 2 3 4 5 6 7 8 9 10 11 12 13 14 15 16 17 18 19 20 21 22 23 24 25 26 27 28 29 30 31 32 33 34 35 36 37 38 39 40 41 42 43 44 45 46 47 48 49 50
000
ASUS45 KCYS 171410
RWRWY

WYOMING REGIONAL WEATHER ROUNDUP
NATIONAL WEATHER SERVICE CHEYENNE WY
700 AM MST WED DEC 17 2014

NOTE:  "FAIR" INDICATES FEW OR NO CLOUDS BELOW 12,000 FEET
WITH NO SIGNIFICANT WEATHER AND/OR OBSTRUCTIONS TO VISIBILITY.

WYZ001-171500-
YELLOWSTONE NATIONAL PARK

CITY           SKY/WX    TMP DP  RH WIND       PRES   REMARKS
LK YELLOWSTONE   N/A     20  17  88 CALM      29.95R
W YELLOWSTONE  NOT AVBL

$$
WYZ002>013-054>058-071-098>099-171500-
NORTHERN WYOMING

CITY           SKY/WX    TMP DP  RH WIND       PRES   REMARKS
JACKSON        CLOUDY    21  21 100 N3        29.97S
CODY           FAIR      12   9  85 S7        29.90S WCI   2
GREYBULL       FAIR      13  10  88 W5        29.98R WCI   5
WORLAND        FAIR       3  -1  83 S6        29.96S WCI  -8
SHERIDAN       FOG       18  15  88 CALM      29.95F VSB 1/2
BUFFALO        FAIR      19  15  84 NW3       29.91R
GILLETTE       FAIR      13  11  92 S6        29.93R WCI   4
HULETT           N/A    N/A N/A N/A MISG        N/A
NEWCASTLE      CLOUDY    18  18 100 SE5       29.99S FOG     WCI  11

$$
WYZ014>020-022>026-101>103-171500-
CENTRAL WYOMING

CITY           SKY/WX    TMP DP  RH WIND       PRES   REMARKS
BIG PINEY      FAIR      17  14  88 CALM      29.98S
PINEDALE       FAIR      16  16 100 CALM      29.98S
DUBOIS         FAIR      27  19  74 N14       29.90S WCI  15
LANDER         FOG        3   0  87 CALM      29.95S VSB 3/4
RIVERTON       HAZE      16  11  80 W3        29.97R VSB 1/2
CASPER         FAIR      22  16  78 SW16      29.92S WCI   8
DOUGLAS        FAIR       9   5  84 CALM      29.94S

$$
WYZ021-027>030-104>119-171500-
SOUTHERN WYOMING

CITY           SKY/WX    TMP DP  RH WIND       PRES   REMARKS
EVANSTON       MOCLDY    26  18  71 SE3       29.96S
FORT BRIDGER   FAIR      21  17  84 S6        30.00S WCI  13
ROCK SPRINGS   FOG        9   6  88 S6        29.98S VSB 1/4 WCI  -1
DIXON          FAIR      13  10  90 CALM      30.03S
RAWLINS        FAIR      18  13  80 SW3       29.97S
SARATOGA       PTSUNNY   18  14  86 CALM      29.98F
LARAMIE        FAIR      16  13  88 S8        29.95R WCI   5
CHEYENNE       FAIR      33  22  63 W7        29.94S WCI  27
TORRINGTON     CLOUDY    13  10  88 E5        29.99S FOG     WCI   5
PINE BLUFFS    FAIR      19  18  93 SW6       29.97S WCI  11

$$


USA.gov is the U.S. government's official web portal to all federal, state and local government web resources and services.